STARLINK-37599, 69360

Orbit data source: Space-Track

STARLINK-37599, 69360 is a payload satellite owned by SpaceX/Seattle (US) in LEO that was launched on Thu, 04 Jun 2026 UTC via an FALCON 9 launch vehicle from the Air Force Eastern Test Range (AFETR). Payload-class satellites include a variety of spacecraft equipped with specific instruments for various scientific and technological missions. These include communications satellites like Starlink; space stations such as the ISS; scientific satellites like the Hubble; Earth observation satellites from companies like Planet Labs, Umbra, and HawkEye 360; GPS; miniature CubeSats for education and research; and military/defense satellites.

Not visible in the next 10 days
Identifier
69360, 2026-123H
Orbit
LEO
Country
Flag of USUS
Related business
Manufacturer
SpaceX/Seattle
Mission
Operational spacecraft
Bus & Motor
STARLINK V2MO, Unknown motor
Mass
575 kg wet, ~530 kg dry
Launch date (UTC)
2026-06-04 (2 months ago)
Launch vehicle
FALCON 9
Launch site
Air Force Eastern Test Range (AFETR)
Object type
Payload
Rocket body
Debris
Shape & HBR
Unknown shape, 17.7 m
Radar Cross Section
Large (>1 m²)

Expand to show TLE details & history
Last TLE update: 17 hours ago

TLE from 17 hours ago
0 STARLINK-37599
1 69360U 26123H   26202.01844322  .00148874  00000-0  95681-3 0  9998
2 69360  53.1585  72.5310 0000918  80.1023 280.0101 15.75275694  7384
Epoch: 2026-07-21T00:26Z
TLE epoch observation values (Epoch: 2026-07-21T00:26:33.494Z)
Latitude
Longitude
127.09728°
Altitude
344.657 km
Speed
7.703 km/s
True Right ascension
04h 50m 07s
True Declination
0° 00' 00"
Sunlit
Object was in daylight at epoch
Visualization orbit readout
Latitude
Unknown
Longitude
Unknown
Altitude
Unknown
Speed
Unknown
Apparent Right ascension
Unknown
Apparent Declination
Unknown
Sunlit
N/A
Visualization observer readout
Local Sidereal Time
05:54:20
Azimuth
Unknown
Elevation
Unknown
Doppler factor
Unknown
Orbital elements
Apogee altitude
344.725 km
Perigee altitude
343.491 km
Semi-major axis
6,722.245 km
Eccentricity
0.00009
Inclination
53.1585°
RAAN
72.531°
Arg. of periapsis
80.1023°
True anomaly
279.99974°
Mean anomaly
280.0101°
Eccentric anomaly
280.00492°
Mean motion
3.93796 °/min
Orbital period
91.42 mins
BSTAR
0.00095681
Loading maneuver chart data...
Computing Atmospheric mass density...
Loading historical data...
Loading historical data...
Loading historical data...
Loading historical data...
Loading historical data...
Loading historical data...
Loading historical data...

Documentation

Showing up to 5 results
|